TimeMST,TemperatureF,Dew PointF,Humidity,Sea Level PressureIn,VisibilityMPH,Wind Direction,Wind SpeedMPH,Gust SpeedMPH,PrecipitationIn,Events,Conditions,WindDirDegrees,DateUTC
12:15 AM,30.2,26.6,86,29.76,10.0,South,3.5,-,N/A,,Overcast,190,2013-02-13 07:15:00
12:35 AM,30.2,24.8,80,29.75,10.0,SSW,4.6,-,N/A,,Overcast,210,2013-02-13 07:35:00
12:55 AM,30.2,26.6,86,29.73,10.0,SSW,6.9,-,N/A,,Scattered Clouds,200,2013-02-13 07:55:00
1:15 AM,30.2,26.6,86,29.73,10.0,SSW,6.9,-,N/A,,Mostly Cloudy,200,2013-02-13 08:15:00
1:35 AM,30.2,26.6,86,29.71,10.0,SSW,6.9,-,N/A,,Overcast,210,2013-02-13 08:35:00
1:55 AM,30.2,26.6,86,29.71,10.0,SSW,10.4,-,N/A,,Mostly Cloudy,200,2013-02-13 08:55:00
2:35 AM,30.2,26.6,86,29.68,10.0,SSW,9.2,-,N/A,,Overcast,200,2013-02-13 09:35:00
2:55 AM,30.2,26.6,86,29.68,10.0,SSW,9.2,-,N/A,,Overcast,200,2013-02-13 09:55:00
3:15 AM,30.2,28.4,93,29.67,10.0,South,6.9,-,N/A,,Overcast,190,2013-02-13 10:15:00
3:35 AM,30.2,28.4,93,29.66,10.0,South,4.6,-,N/A,,Overcast,190,2013-02-13 10:35:00
3:55 AM,35.6,30.2,81,29.65,10.0,West,12.7,18.4,N/A,,Overcast,270,2013-02-13 10:55:00
4:15 AM,37.4,30.2,75,29.64,10.0,West,16.1,26.5,N/A,,Overcast,280,2013-02-13 11:15:00
4:35 AM,37.4,30.2,75,29.64,10.0,West,15.0,23.0,N/A,,Overcast,270,2013-02-13 11:35:00
4:55 AM,35.6,30.2,81,29.62,10.0,West,15.0,-,N/A,,Overcast,260,2013-02-13 11:55:00
5:15 AM,37.4,30.2,75,29.63,10.0,West,17.3,26.5,N/A,,Overcast,270,2013-02-13 12:15:00
5:35 AM,37.4,30.2,75,29.63,10.0,West,17.3,21.9,N/A,,Overcast,280,2013-02-13 12:35:00
5:55 AM,37.4,30.2,75,29.62,10.0,WNW,16.1,-,N/A,,Mostly Cloudy,290,2013-02-13 12:55:00
6:15 AM,35.6,30.2,81,29.62,10.0,WNW,17.3,23.0,N/A,,Mostly Cloudy,300,2013-02-13 13:15:00
6:35 AM,35.6,30.2,81,29.62,9.0,WNW,19.6,25.3,N/A,,Mostly Cloudy,290,2013-02-13 13:35:00
6:55 AM,33.8,32.0,93,29.63,10.0,WNW,16.1,24.2,N/A,,Overcast,290,2013-02-13 13:55:00
7:15 AM,35.6,32.0,87,29.63,10.0,West,16.1,-,N/A,,Overcast,280,2013-02-13 14:15:00
7:35 AM,35.6,32.0,87,29.62,10.0,West,21.9,25.3,N/A,,Mostly Cloudy,280,2013-02-13 14:35:00
7:55 AM,35.6,32.0,87,29.63,10.0,West,20.7,25.3,N/A,,Mostly Cloudy,280,2013-02-13 14:55:00
8:15 AM,35.6,32.0,87,29.63,10.0,West,21.9,26.5,N/A,,Mostly Cloudy,280,2013-02-13 15:15:00
8:35 AM,37.4,30.2,75,29.64,10.0,West,18.4,26.5,N/A,,Scattered Clouds,280,2013-02-13 15:35:00
8:55 AM,37.4,30.2,75,29.65,10.0,West,19.6,24.2,N/A,,Scattered Clouds,280,2013-02-13 15:55:00
9:15 AM,37.4,30.2,75,29.65,10.0,WNW,19.6,25.3,N/A,,Partly Cloudy,290,2013-02-13 16:15:00
9:35 AM,37.4,30.2,75,29.66,10.0,WNW,17.3,25.3,N/A,,Clear,290,2013-02-13 16:35:00
9:55 AM,37.4,30.2,75,29.66,10.0,WNW,20.7,24.2,N/A,,Clear,290,2013-02-13 16:55:00
10:15 AM,37.4,30.2,75,29.67,10.0,WNW,23.0,28.8,N/A,,Clear,290,2013-02-13 17:15:00
10:35 AM,37.4,30.2,75,29.67,10.0,WNW,19.6,25.3,N/A,,Partly Cloudy,290,2013-02-13 17:35:00
10:55 AM,37.4,30.2,75,29.68,10.0,WNW,20.7,25.3,N/A,,Scattered Clouds,290,2013-02-13 17:55:00
11:15 AM,37.4,30.2,75,29.69,10.0,WNW,17.3,24.2,N/A,,Mostly Cloudy,290,2013-02-13 18:15:00
11:35 AM,37.4,30.2,75,29.69,10.0,WNW,20.7,27.6,N/A,,Partly Cloudy,290,2013-02-13 18:35:00
11:55 AM,37.4,30.2,75,29.70,10.0,WNW,19.6,23.0,N/A,,Clear,290,2013-02-13 18:55:00
12:15 PM,39.2,30.2,70,29.70,10.0,WNW,16.1,20.7,N/A,,Mostly Cloudy,290,2013-02-13 19:15:00
12:35 PM,39.2,30.2,70,29.71,10.0,WNW,15.0,-,N/A,,Overcast,300,2013-02-13 19:35:00
12:55 PM,39.2,30.2,70,29.71,10.0,WNW,17.3,-,N/A,,Overcast,290,2013-02-13 19:55:00
1:15 PM,39.2,30.2,70,29.72,10.0,WNW,19.6,23.0,N/A,,Overcast,290,2013-02-13 20:15:00
1:55 PM,39.2,30.2,70,29.72,10.0,WNW,21.9,27.6,N/A,,Overcast,290,2013-02-13 20:55:00
2:15 PM,39.2,30.2,70,29.73,10.0,WNW,19.6,26.5,N/A,,Overcast,300,2013-02-13 21:15:00
2:55 PM,39.2,30.2,70,29.75,10.0,WNW,18.4,27.6,N/A,,Overcast,300,2013-02-13 21:55:00
3:15 PM,39.2,30.2,70,29.76,10.0,WNW,15.0,-,N/A,,Overcast,300,2013-02-13 22:15:00
3:35 PM,37.4,30.2,75,29.77,10.0,WNW,18.4,-,N/A,,Overcast,300,2013-02-13 22:35:00
3:55 PM,37.4,30.2,75,29.77,10.0,WNW,19.6,27.6,N/A,,Overcast,290,2013-02-13 22:55:00
4:35 PM,37.4,28.4,70,29.79,10.0,WNW,24.2,28.8,N/A,,Overcast,300,2013-02-13 23:35:00
4:55 PM,35.6,30.2,81,29.80,10.0,NW,24.2,31.1,N/A,,Overcast,310,2013-02-13 23:55:00
5:15 PM,35.6,30.2,81,29.80,10.0,WNW,19.6,24.2,N/A,,Mostly Cloudy,300,2013-02-14 00:15:00
5:35 PM,35.6,28.4,75,29.81,10.0,NW,18.4,25.3,N/A,,Partly Cloudy,310,2013-02-14 00:35:00
5:55 PM,35.6,28.4,75,29.82,10.0,WNW,18.4,24.2,N/A,,Clear,300,2013-02-14 00:55:00
6:15 PM,35.6,28.4,75,29.83,10.0,WNW,18.4,21.9,N/A,,Clear,300,2013-02-14 01:15:00
6:35 PM,35.6,28.4,75,29.82,10.0,WNW,19.6,25.3,N/A,,Clear,290,2013-02-14 01:35:00
6:55 PM,35.6,28.4,75,29.83,10.0,WNW,19.6,23.0,N/A,,Clear,290,2013-02-14 01:55:00
7:15 PM,35.6,28.4,75,29.84,10.0,WNW,19.6,27.6,N/A,,Clear,290,2013-02-14 02:15:00
7:35 PM,33.8,26.6,75,29.84,10.0,WNW,17.3,25.3,N/A,,Partly Cloudy,300,2013-02-14 02:35:00
7:55 PM,33.8,28.4,81,29.85,10.0,WNW,24.2,31.1,N/A,,Partly Cloudy,290,2013-02-14 02:55:00
8:15 PM,33.8,24.8,70,29.86,10.0,WNW,28.8,35.7,N/A,,Scattered Clouds,300,2013-02-14 03:15:00
8:35 PM,32.0,21.2,64,29.86,10.0,WNW,21.9,29.9,N/A,,Partly Cloudy,290,2013-02-14 03:35:00
8:55 PM,30.2,23.0,75,29.87,10.0,WNW,16.1,25.3,N/A,,Mostly Cloudy,290,2013-02-14 03:55:00
9:15 PM,30.2,21.2,69,29.86,10.0,West,23.0,28.8,N/A,,Mostly Cloudy,280,2013-02-14 04:15:00
9:55 PM,30.2,21.2,69,29.87,10.0,West,23.0,31.1,N/A,,Overcast,280,2013-02-14 04:55:00
10:15 PM,30.2,21.2,69,29.88,10.0,West,19.6,27.6,N/A,,Overcast,280,2013-02-14 05:15:00
10:35 PM,30.2,23.0,75,29.88,10.0,West,20.7,28.8,N/A,,Overcast,280,2013-02-14 05:35:00
10:55 PM,30.2,23.0,75,29.88,10.0,West,24.2,32.2,N/A,,Overcast,270,2013-02-14 05:55:00
11:15 PM,30.2,23.0,75,29.88,10.0,WNW,25.3,35.7,N/A,,Overcast,290,2013-02-14 06:15:00